,,PA_Meas_PMT16A,,PR_Meas_QMR101_102,,RH_Meas_QMH101,,SR_Meas_QMS101,,TA_Meas_QMH101,,GenWind,,GenWind,
time,status,PA,status,PR,status,RH,status,SR,status,TA,status,DirAvg,status,SpdAvg,
2014-03-25, 07:11:04,VALID,917.424,VALID,0,VALID,86.3581,VALID,57.481,VALID,19.8783,VALID,118,VALID,1.04648,
2014-03-25, 07:12:04,VALID,917.418,VALID,0,VALID,86.1294,VALID,71.8781,VALID,19.8978,VALID,109,VALID,1.4043,
2014-03-25, 07:13:04,VALID,917.396,VALID,0,VALID,85.9007,VALID,80.9032,VALID,19.9578,VALID,122,VALID,1.18984,
2014-03-25, 07:14:04,VALID,917.346,VALID,0,VALID,85.9464,VALID,86.1678,VALID,19.9953,VALID,123,VALID,0.639453,
2014-03-25, 07:15:04,VALID,917.329,VALID,0,VALID,85.8549,VALID,83.5892,VALID,20.0538,VALID,123,VALID,0.810156,
2014-03-25, 07:16:04,VALID,917.371,VALID,0,VALID,85.7482,VALID,84.2339,VALID,20.0733,VALID,113,VALID,0.633594,
2014-03-25, 07:17:04,VALID,917.358,VALID,0,VALID,85.5424,VALID,84.1264,VALID,20.1123,VALID,135,VALID,1.49297,
2014-03-25, 07:18:04,VALID,917.365,VALID,0,VALID,85.6643,VALID,84.4487,VALID,20.1513,VALID,123,VALID,0.901953,
2014-03-25, 07:19:04,VALID,917.305,VALID,0,VALID,85.1231,VALID,85.6306,VALID,20.1903,VALID,127,VALID,1.51797,
2014-03-25, 07:20:04,VALID,917.353,VALID,0,VALID,84.597,VALID,88.9613,VALID,20.2293,VALID,123,VALID,1.65313,
2014-03-25, 07:21:04,VALID,917.349,VALID,0,VALID,84.7724,VALID,89.7134,VALID,20.2684,VALID,139,VALID,1.27383,
2014-03-25, 07:22:04,VALID,917.4,VALID,0,VALID,84.6733,VALID,86.1678,VALID,20.2684,VALID,141,VALID,1.35664,
2014-03-25, 07:23:04,VALID,917.398,VALID,0,VALID,84.8562,VALID,87.7794,VALID,20.2879,VALID,140,VALID,1.17734,
2014-03-25, 07:24:04,VALID,917.446,VALID,0,VALID,84.8258,VALID,93.9036,VALID,20.2879,VALID,135,VALID,1.46445,
2014-03-25, 07:25:04,VALID,917.422,VALID,0,VALID,85.1307,VALID,102.821,VALID,20.2879,VALID,135,VALID,1.37695,
2014-03-25, 07:26:04,VALID,917.47,VALID,0,VALID,84.7343,VALID,103.358,VALID,20.3074,VALID,141,VALID,1.77383,
2014-03-25, 07:27:04,VALID,917.483,VALID,0,VALID,84.9249,VALID,105.077,VALID,20.3464,VALID,142,VALID,0.928906,
2014-03-25, 07:28:04,VALID,917.486,VALID,0,VALID,84.8181,VALID,108.838,VALID,20.3659,VALID,137,VALID,1.45898,
2014-03-25, 07:29:04,VALID,917.503,VALID,0,VALID,84.8791,VALID,111.416,VALID,20.4064,VALID,137,VALID,1.70273,
2014-03-25, 07:30:04,VALID,917.507,VALID,0,VALID,85.0545,VALID,108.623,VALID,20.4049,VALID,139,VALID,1.14883,
2014-03-25, 07:31:04,VALID,917.507,VALID,0,VALID,85.0849,VALID,114.747,VALID,20.3854,VALID,143,VALID,1.53984,
2014-03-25, 07:32:04,VALID,917.54,VALID,0,VALID,85.3594,VALID,130.648,VALID,20.4454,VALID,136,VALID,1.03164,
2014-03-25, 07:33:04,VALID,917.535,VALID,0,VALID,84.9249,VALID,142.36,VALID,20.4634,VALID,137,VALID,1.70117,
2014-03-25, 07:34:04,VALID,917.544,VALID,0,VALID,84.5513,VALID,143.112,VALID,20.5219,VALID,153,VALID,1.18711,
2014-03-25, 07:35:04,VALID,917.568,VALID,0,VALID,84.376,VALID,145.583,VALID,20.5804,VALID,169,VALID,1.57227,
2014-03-25, 07:36:04,VALID,917.6,VALID,0,VALID,84.3455,VALID,147.302,VALID,20.6194,VALID,151,VALID,0.714844,
2014-03-25, 07:37:04,VALID,917.564,VALID,0,VALID,83.667,VALID,148.591,VALID,20.678,VALID,147,VALID,1.58008,
2014-03-25, 07:38:04,VALID,917.553,VALID,0,VALID,83.8881,VALID,144.508,VALID,20.6975,VALID,158,VALID,1.48555,
2014-03-25, 07:39:04,VALID,917.599,VALID,0,VALID,83.6136,VALID,144.079,VALID,20.6975,VALID,147,VALID,1.19531,
2014-03-25, 07:40:04,VALID,917.618,VALID,0,VALID,83.667,VALID,146.335,VALID,20.7365,VALID,140,VALID,0.484766,
2014-03-25, 07:41:04,VALID,917.6,VALID,0,VALID,83.4078,VALID,132.153,VALID,20.8145,VALID,141,VALID,1.65117,
2014-03-25, 07:42:04,VALID,917.587,VALID,0,VALID,83.4917,VALID,144.186,VALID,20.7739,VALID,156,VALID,0.985156,
2014-03-25, 07:43:04,VALID,917.596,VALID,0,VALID,83.6899,VALID,139.996,VALID,20.8145,VALID,151,VALID,0.8,
2014-03-25, 07:44:04,VALID,917.599,VALID,0,VALID,83.2325,VALID,133.442,VALID,20.834,VALID,130,VALID,1.78125,
2014-03-25, 07:45:04,VALID,917.62,VALID,0,VALID,83.3773,VALID,111.954,VALID,20.8519,VALID,155,VALID,1.82852,
2014-03-25, 07:46:04,VALID,917.615,VALID,0,VALID,83.3239,VALID,114.425,VALID,20.8519,VALID,139,VALID,1.63516,
2014-03-25, 07:47:04,VALID,917.61,VALID,0,VALID,83.7127,VALID,117.541,VALID,20.873,VALID,141,VALID,1.26758,
2014-03-25, 07:48:04,VALID,917.637,VALID,0,VALID,84.0329,VALID,117.648,VALID,20.8535,VALID,147,VALID,1.50039,
2014-03-25, 07:49:04,VALID,917.625,VALID,0,VALID,83.5374,VALID,137.095,VALID,20.873,VALID,124,VALID,1.55547,
2014-03-25, 07:50:04,VALID,917.605,VALID,0,VALID,83.7813,VALID,163.418,VALID,20.8714,VALID,132,VALID,1.49258,
2014-03-25, 07:51:04,VALID,917.572,VALID,0,VALID,83.6746,VALID,142.252,VALID,20.9316,VALID,157,VALID,1.43828,
2014-03-25, 07:52:04,VALID,917.597,VALID,0,VALID,83.7204,VALID,130.326,VALID,20.9706,VALID,139,VALID,1.21719,
2014-03-25, 07:53:04,VALID,917.565,VALID,0,VALID,82.7827,VALID,125.062,VALID,20.9105,VALID,148,VALID,1.74844,
2014-03-25, 07:54:04,VALID,917.574,VALID,0,VALID,83.202,VALID,129.681,VALID,20.9105,VALID,139,VALID,2.12539,
2014-03-25, 07:55:04,VALID,917.595,VALID,0,VALID,83.5831,VALID,160.195,VALID,20.8699,VALID,141,VALID,1.33086,
2014-03-25, 07:56:04,VALID,917.615,VALID,0,VALID,83.8118,VALID,182.22,VALID,20.9511,VALID,150,VALID,1.04766,
2014-03-25, 07:57:04,VALID,917.618,VALID,0,VALID,84.0939,VALID,152.889,VALID,21.0096,VALID,138,VALID,0.926562,
2014-03-25, 07:58:04,VALID,917.619,VALID,0,VALID,83.1715,VALID,164.492,VALID,21.0291,VALID,132,VALID,1.97617,
2014-03-25, 07:59:04,VALID,917.607,VALID,0,VALID,82.5159,VALID,157.831,VALID,21.0486,VALID,134,VALID,1.92422,
2014-03-25, 08:00:04,VALID,917.636,VALID,0,VALID,83.141,VALID,200.915,VALID,21.0681,VALID,116,VALID,1.30391,
2014-03-25, 08:01:04,VALID,917.627,VALID,0,VALID,83.141,VALID,182.972,VALID,21.0681,VALID,115,VALID,1.68086,
2014-03-25, 08:02:04,VALID,917.64,VALID,0,VALID,83.0647,VALID,202.312,VALID,21.1657,VALID,138,VALID,1.04766,
2014-03-25, 08:03:04,VALID,917.638,VALID,0,VALID,82.6073,VALID,184.584,VALID,21.2047,VALID,136,VALID,2.33281,
2014-03-25, 08:04:04,VALID,917.632,VALID,0,VALID,82.3176,VALID,177.708,VALID,21.2031,VALID,141,VALID,1.62852,
2014-03-25, 08:05:04,VALID,917.621,VALID,0,VALID,82.1042,VALID,189.741,VALID,21.2632,VALID,133,VALID,2.35,
2014-03-25, 08:06:04,VALID,917.634,VALID,0,VALID,81.7993,VALID,224.552,VALID,21.2421,VALID,141,VALID,2.37344,
2014-03-25, 08:07:04,VALID,917.622,VALID,0,VALID,82.31,VALID,244.321,VALID,21.2616,VALID,123,VALID,1.28867,
2014-03-25, 08:08:04,VALID,917.627,VALID,0,VALID,82.0737,VALID,265.057,VALID,21.3201,VALID,151,VALID,1.25898,
2014-03-25, 08:09:04,VALID,917.628,VALID,0,VALID,82.1957,VALID,268.71,VALID,21.3981,VALID,165,VALID,1.61523,
2014-03-25, 08:10:04,VALID,917.635,VALID,0,VALID,81.4638,VALID,265.702,VALID,21.3965,VALID,146,VALID,1.34453,
2014-03-25, 08:11:04,VALID,917.673,VALID,0,VALID,81.4181,VALID,278.487,VALID,21.4762,VALID,159,VALID,1.06211,
2014-03-25, 08:12:04,VALID,917.679,VALID,0,VALID,80.427,VALID,286.438,VALID,21.5737,VALID,152,VALID,2.20664,
2014-03-25, 08:13:04,VALID,917.71,VALID,0,VALID,80.9531,VALID,286.438,VALID,21.6128,VALID,157,VALID,1.84687,
2014-03-25, 08:14:04,VALID,917.715,VALID,0,VALID,79.779,VALID,283.967,VALID,21.6518,VALID,151,VALID,2.05508,
2014-03-25, 08:15:04,VALID,917.699,VALID,0,VALID,79.558,VALID,294.711,VALID,21.6323,VALID,148,VALID,1.60273,
2014-03-25, 08:16:04,VALID,917.654,VALID,0,VALID,79.8782,VALID,293.529,VALID,21.7298,VALID,169,VALID,1.64297,
2014-03-25, 08:17:04,VALID,917.668,VALID,0,VALID,79.3826,VALID,283.967,VALID,21.7477,VALID,159,VALID,2.02109,
2014-03-25, 08:18:04,VALID,917.666,VALID,0,VALID,80.7091,VALID,292.992,VALID,21.8062,VALID,160,VALID,0.958594,
2014-03-25, 08:19:04,VALID,917.664,VALID,0,VALID,80.2898,VALID,227.131,VALID,22.0047,VALID,171,VALID,0.555078,
2014-03-25, 08:20:04,VALID,917.71,VALID,0,VALID,78.4145,VALID,273.867,VALID,22.0632,VALID,156,VALID,1.64609,
2014-03-25, 08:21:04,VALID,917.742,VALID,0,VALID,77.8046,VALID,176.203,VALID,22.042,VALID,154,VALID,2.17461,
2014-03-25, 08:22:04,VALID,917.721,VALID,0,VALID,78.8337,VALID,186.196,VALID,21.9444,VALID,147,VALID,1.56094,
2014-03-25, 08:23:04,VALID,917.768,VALID,0,VALID,79.5961,VALID,277.306,VALID,21.9249,VALID,161,VALID,1.36836,
2014-03-25, 08:24:04,VALID,917.766,VALID,0,VALID,78.2925,VALID,221.759,VALID,21.8664,VALID,136,VALID,2.03333,
2014-03-25, 08:25:04,VALID,917.738,VALID,0,VALID,79.1768,VALID,206.287,VALID,21.8274,VALID,161,VALID,2.15078,
2014-03-25, 08:26:04,VALID,917.734,VALID,0,VALID,79.3216,VALID,325.224,VALID,21.8664,VALID,147,VALID,1.70859,
2014-03-25, 08:27:04,VALID,917.733,VALID,0,VALID,79.1006,VALID,347.035,VALID,21.9461,VALID,110,VALID,1.77891,
2014-03-25, 08:28:04,VALID,917.712,VALID,0,VALID,78.605,VALID,271.289,VALID,21.964,VALID,154,VALID,2.32422,
2014-03-25, 08:29:04,VALID,917.734,VALID,0,VALID,77.9189,VALID,326.836,VALID,22.003,VALID,158,VALID,1.88906,
2014-03-25, 08:30:04,VALID,917.707,VALID,0,VALID,78.7499,VALID,350.903,VALID,22.0615,VALID,156,VALID,1.29844,
2014-03-25, 08:31:04,VALID,917.693,VALID,0,VALID,77.2786,VALID,357.457,VALID,22.1005,VALID,155,VALID,2.24336,
2014-03-25, 08:32:04,VALID,917.692,VALID,0,VALID,78.0485,VALID,327.481,VALID,22.1396,VALID,167,VALID,2.0043,
2014-03-25, 08:33:04,VALID,917.708,VALID,0,VALID,78.4297,VALID,249.049,VALID,22.2567,VALID,149,VALID,2.17422,
2014-03-25, 08:34:04,VALID,917.712,VALID,0,VALID,78.0943,VALID,294.066,VALID,22.3347,VALID,124,VALID,2.13438,
2014-03-25, 08:35:04,VALID,917.678,VALID,0,VALID,76.5848,VALID,321.894,VALID,22.3559,VALID,178,VALID,2.18242,
2014-03-25, 08:36:04,VALID,917.727,VALID,0,VALID,77.2176,VALID,357.886,VALID,22.4145,VALID,165,VALID,1.69727,
2014-03-25, 08:37:04,VALID,917.698,VALID,0,VALID,76.379,VALID,244.536,VALID,22.3933,VALID,149,VALID,2.50312,
2014-03-25, 08:38:04,VALID,917.721,VALID,0,VALID,77.2481,VALID,340.159,VALID,22.4518,VALID,138,VALID,0.977734,
2014-03-25, 08:39:04,VALID,917.687,VALID,0,VALID,76.0969,VALID,283.967,VALID,22.5103,VALID,126,VALID,2.18359,
2014-03-25, 08:40:04,VALID,917.691,VALID,0,VALID,76.8593,VALID,353.374,VALID,22.5086,VALID,160,VALID,1.08555,
2014-03-25, 08:41:04,VALID,917.683,VALID,0,VALID,77.0651,VALID,372.284,VALID,22.5884,VALID,149,VALID,1.71133,
2014-03-25, 08:42:04,VALID,917.708,VALID,0,VALID,76.3485,VALID,335.002,VALID,22.647,VALID,157,VALID,1.83281,
2014-03-25, 08:43:04,VALID,917.677,VALID,0,VALID,77.1795,VALID,371.424,VALID,22.6877,VALID,138,VALID,1.34609,
2014-03-25, 08:44:04,VALID,917.697,VALID,0,VALID,75.548,VALID,371.639,VALID,22.6843,VALID,152,VALID,1.8707,
2014-03-25, 08:45:04,VALID,917.715,VALID,0,VALID,76.7221,VALID,319.637,VALID,22.725,VALID,150,VALID,1.45586,
2014-03-25, 08:46:04,VALID,917.689,VALID,0,VALID,75.609,VALID,375.829,VALID,22.647,VALID,156,VALID,2.46133,
2014-03-25, 08:47:04,VALID,917.665,VALID,0,VALID,76.905,VALID,376.474,VALID,22.5867,VALID,136,VALID,1.64727,
2014-03-25, 08:48:04,VALID,917.672,VALID,0,VALID,76.5162,VALID,403.334,VALID,22.6274,VALID,130,VALID,1.93828,
2014-03-25, 08:49:04,VALID,917.644,VALID,0,VALID,76.7144,VALID,399.681,VALID,22.7055,VALID,151,VALID,1.98281,
2014-03-25, 08:50:04,VALID,917.625,VALID,0,VALID,76.4019,VALID,420.31,VALID,22.7623,VALID,121,VALID,1.83906,
2014-03-25, 08:51:04,VALID,917.661,VALID,0,VALID,75.8149,VALID,434.277,VALID,22.7623,VALID,135,VALID,1.88672,
2014-03-25, 08:52:04,VALID,917.69,VALID,0,VALID,77.1413,VALID,456.303,VALID,22.8794,VALID,122,VALID,1.66992,
2014-03-25, 08:53:04,VALID,917.698,VALID,0,VALID,74.9306,VALID,439.327,VALID,22.938,VALID,96,VALID,1.11172,
2014-03-25, 08:54:04,VALID,917.659,VALID,0,VALID,76.1732,VALID,456.517,VALID,23.0551,VALID,69,VALID,1.28906,
2014-03-25, 08:55:04,VALID,917.676,VALID,0,VALID,75.7234,VALID,442.658,VALID,23.2325,VALID,105,VALID,0.944922,
2014-03-25, 08:56:04,VALID,917.723,VALID,0,VALID,74.7933,VALID,453.617,VALID,23.4064,VALID,117,VALID,2.18359,
2014-03-25, 08:57:04,VALID,917.732,VALID,0,VALID,73.2839,VALID,489.824,VALID,23.3088,VALID,116,VALID,1.7332,
2014-03-25, 08:58:04,VALID,917.755,VALID,0,VALID,71.1722,VALID,503.684,VALID,23.2112,VALID,155,VALID,2.88867,
2014-03-25, 08:59:04,VALID,917.764,VALID,0,VALID,72.4148,VALID,487.031,VALID,23.1899,VALID,181,VALID,0.7625,
2014-03-25, 09:00:04,VALID,917.776,VALID,0,VALID,73.8252,VALID,472.204,VALID,23.3674,VALID,155,VALID,1.15742,
2014-03-25, 09:01:04,VALID,917.733,VALID,0,VALID,72.552,VALID,478.65,VALID,23.4454,VALID,173,VALID,1.56133,
2014-03-25, 09:02:04,VALID,917.722,VALID,0,VALID,73.1086,VALID,476.501,VALID,23.4241,VALID,153,VALID,1.55586,
2014-03-25, 09:03:04,VALID,917.75,VALID,0,VALID,71.7821,VALID,461.46,VALID,23.5235,VALID,156,VALID,1.44102,
2014-03-25, 09:04:04,VALID,917.747,VALID,0,VALID,73.4897,VALID,487.353,VALID,23.5998,VALID,83,VALID,0.692578,
2014-03-25, 09:05:04,VALID,917.765,VALID,0,VALID,69.8534,VALID,503.039,VALID,23.5412,VALID,128,VALID,2.01016,
2014-03-25, 09:06:04,VALID,917.747,VALID,0,VALID,73.2763,VALID,504.973,VALID,23.4827,VALID,101,VALID,2.1918,
2014-03-25, 09:07:04,VALID,917.742,VALID,0,VALID,71.7973,VALID,509.379,VALID,23.4845,VALID,123,VALID,1.79805,
2014-03-25, 09:08:04,VALID,917.752,VALID,0,VALID,73.0018,VALID,261.404,VALID,23.4845,VALID,154,VALID,1.67813,
2014-03-25, 09:09:04,VALID,917.756,VALID,0,VALID,71.8278,VALID,459.633,VALID,23.4845,VALID,139,VALID,1.13359,
2014-03-25, 09:10:04,VALID,917.749,VALID,0,VALID,72.979,VALID,497.667,VALID,23.465,VALID,150,VALID,1.70781,
2014-03-25, 09:11:04,VALID,917.742,VALID,0,VALID,73.2687,VALID,548.057,VALID,23.5235,VALID,133,VALID,1.5918,
2014-03-25, 09:12:04,VALID,917.762,VALID,0,VALID,73.8557,VALID,554.826,VALID,23.6406,VALID,117,VALID,1.27109,
2014-03-25, 09:13:04,VALID,917.776,VALID,0,VALID,71.7668,VALID,514.965,VALID,23.7578,VALID,138,VALID,1.64844,
2014-03-25, 09:14:04,VALID,917.694,VALID,0,VALID,70.5014,VALID,247.222,VALID,23.8163,VALID,93,VALID,1.93047,
2014-03-25, 09:15:04,VALID,917.765,VALID,0,VALID,70.974,VALID,420.632,VALID,23.8181,VALID,177,VALID,1.75156,
2014-03-25, 09:16:04,VALID,917.75,VALID,0,VALID,71.0655,VALID,511.312,VALID,23.6797,VALID,173,VALID,1.70938,
2014-03-25, 09:17:04,VALID,917.784,VALID,0,VALID,71.378,VALID,525.172,VALID,23.6602,VALID,151,VALID,1.96211,
2014-03-25, 09:18:04,VALID,917.787,VALID,0,VALID,70.2193,VALID,540.322,VALID,23.4827,VALID,147,VALID,3.28203,
2014-03-25, 09:19:04,VALID,917.816,VALID,0,VALID,72.2547,VALID,545.909,VALID,23.4845,VALID,124,VALID,1.40391,
2014-03-25, 09:20:04,VALID,917.781,VALID,0,VALID,71.3323,VALID,283.43,VALID,23.5235,VALID,161,VALID,2.27031,
2014-03-25, 09:21:04,VALID,917.81,VALID,0,VALID,71.7973,VALID,549.561,VALID,23.5821,VALID,151,VALID,1.57344,
2014-03-25, 09:22:04,VALID,917.78,VALID,0,VALID,71.9193,VALID,537.85,VALID,23.6016,VALID,178,VALID,1.56953,
2014-03-25, 09:23:04,VALID,917.788,VALID,0,VALID,71.3094,VALID,559.339,VALID,23.7773,VALID,44,VALID,2.32773,
2014-03-25, 09:24:04,VALID,917.8,VALID,0,VALID,71.9117,VALID,583.62,VALID,23.9335,VALID,77,VALID,1.02109,
2014-03-25, 09:25:04,VALID,917.797,VALID,0,VALID,72.5749,VALID,539.247,VALID,24.0292,VALID,110,VALID,1.99141,
2014-03-25, 09:26:04,VALID,917.8,VALID,0,VALID,69.0758,VALID,557.942,VALID,24.2068,VALID,69,VALID,0.860547,
2014-03-25, 09:27:04,VALID,917.77,VALID,0,VALID,68.4354,VALID,467.584,VALID,24.2263,VALID,157,VALID,3.23711,
2014-03-25, 09:28:04,VALID,917.825,VALID,0,VALID,68.3744,VALID,280.851,VALID,24.0701,VALID,111,VALID,2.36875,
2014-03-25, 09:29:04,VALID,917.807,VALID,0,VALID,71.7973,VALID,449.534,VALID,23.9139,VALID,82,VALID,2.12969,
2014-03-25, 09:30:04,VALID,917.795,VALID,0,VALID,70.5166,VALID,638.953,VALID,23.9316,VALID,65,VALID,1.79883,
2014-03-25, 09:31:04,VALID,917.793,VALID,0,VALID,70.2879,VALID,636.589,VALID,23.9725,VALID,66,VALID,2.225,
2014-03-25, 09:32:04,VALID,917.817,VALID,0,VALID,70.5471,VALID,275.587,VALID,24.0097,VALID,131,VALID,1.58047,
2014-03-25, 09:33:04,VALID,917.804,VALID,0,VALID,69.5713,VALID,537.206,VALID,23.8926,VALID,187,VALID,4.24258,
2014-03-25, 09:34:04,VALID,917.792,VALID,0,VALID,69.9143,VALID,612.092,VALID,23.8536,VALID,168,VALID,2.68828,
2014-03-25, 09:35:04,VALID,917.791,VALID,0,VALID,70.1888,VALID,582.009,VALID,23.8749,VALID,157,VALID,2.83711,
2014-03-25, 09:36:04,VALID,917.798,VALID,0,VALID,70.4709,VALID,376.581,VALID,23.7755,VALID,119,VALID,2.03437,
2014-03-25, 09:37:04,VALID,917.788,VALID,0,VALID,69.9296,VALID,234.651,VALID,23.6406,VALID,153,VALID,2.16563,
2014-03-25, 09:38:04,VALID,917.75,VALID,0,VALID,71.035,VALID,252.702,VALID,23.465,VALID,127,VALID,1.85742,
2014-03-25, 09:39:04,VALID,917.718,VALID,0,VALID,71.0807,VALID,450.393,VALID,23.3869,VALID,115,VALID,2.27695,
2014-03-25, 09:40:04,VALID,917.698,VALID,0,VALID,73.322,VALID,643.787,VALID,23.4454,VALID,78,VALID,1.20352,
2014-03-25, 09:41:04,VALID,917.714,VALID,0,VALID,72.0184,VALID,625.522,VALID,23.6992,VALID,36,VALID,2.66836,
2014-03-25, 09:42:04,VALID,917.681,VALID,0,VALID,70.1354,VALID,636.266,VALID,23.795,VALID,46,VALID,2.95313,
2014-03-25, 09:43:04,VALID,917.674,VALID,0,VALID,70.9511,VALID,497.345,VALID,23.8926,VALID,39,VALID,1.56367,
2014-03-25, 09:44:04,VALID,917.698,VALID,0,VALID,70.3565,VALID,328.125,VALID,24.0506,VALID,95,VALID,1.50469,
2014-03-25, 09:45:04,VALID,917.69,VALID,0,VALID,68.6946,VALID,625.952,VALID,24.0896,VALID,70,VALID,2.54844,
2014-03-25, 09:46:04,VALID,917.719,VALID,0,VALID,68.6717,VALID,591.141,VALID,23.9902,VALID,95,VALID,3.56367,
2014-03-25, 09:47:04,VALID,917.74,VALID,0,VALID,71.5915,VALID,354.878,VALID,23.8731,VALID,61,VALID,1.95352,
2014-03-25, 09:48:04,VALID,917.719,VALID,0,VALID,68.4659,VALID,557.62,VALID,23.9707,VALID,171,VALID,2.55312,
2014-03-25, 09:49:04,VALID,917.745,VALID,0,VALID,70.2879,VALID,634.547,VALID,24.0488,VALID,134,VALID,1.85586,
2014-03-25, 09:50:04,VALID,917.791,VALID,0,VALID,69.091,VALID,665.705,VALID,24.1464,VALID,133,VALID,1.11992,
2014-03-25, 09:51:04,VALID,917.771,VALID,0,VALID,70.9511,VALID,621.01,VALID,24.3221,VALID,91,VALID,1.70742,
2014-03-25, 09:52:04,VALID,917.792,VALID,0,VALID,68.1838,VALID,629.39,VALID,24.4197,VALID,129,VALID,0.717578,
2014-03-25, 09:53:04,VALID,917.7,VALID,0,VALID,66.7811,VALID,667.962,VALID,24.4197,VALID,139,VALID,2.02266,
2014-03-25, 09:54:04,VALID,917.722,VALID,0,VALID,65.4394,VALID,657.755,VALID,24.2245,VALID,128,VALID,2.78086,
2014-03-25, 09:55:04,VALID,917.732,VALID,0,VALID,67.9704,VALID,643.358,VALID,24.0701,VALID,143,VALID,2.11094,
2014-03-25, 09:56:04,VALID,917.69,VALID,0,VALID,67.7036,VALID,642.176,VALID,23.9902,VALID,168,VALID,2.97813,
2014-03-25, 09:57:04,VALID,917.684,VALID,0,VALID,69.8915,VALID,664.094,VALID,24.0488,VALID,125,VALID,1.08594,
2014-03-25, 09:58:04,VALID,917.745,VALID,0,VALID,69.3807,VALID,674.408,VALID,24.2245,VALID,143,VALID,2.57695,
2014-03-25, 09:59:04,VALID,917.737,VALID,0,VALID,67.6349,VALID,477.683,VALID,24.2049,VALID,145,VALID,3.3918,
2014-03-25, 10:00:04,VALID,917.755,VALID,0,VALID,66.9946,VALID,657.003,VALID,24.2245,VALID,146,VALID,3.65742,
2014-03-25, 10:01:04,VALID,917.728,VALID,0,VALID,65.5385,VALID,674.838,VALID,24.0079,VALID,118,VALID,2.7668,
2014-03-25, 10:02:04,VALID,917.712,VALID,0,VALID,68.7175,VALID,677.524,VALID,24.0878,VALID,153,VALID,1.56758,
2014-03-25, 10:03:04,VALID,917.733,VALID,0,VALID,67.2995,VALID,701.161,VALID,24.244,VALID,174,VALID,1.58984,
2014-03-25, 10:04:04,VALID,917.716,VALID,0,VALID,67.9932,VALID,702.665,VALID,24.5368,VALID,86,VALID,1.14648,
2014-03-25, 10:05:04,VALID,917.711,VALID,0,VALID,66.743,VALID,688.268,VALID,24.5173,VALID,170,VALID,1.9875,
2014-03-25, 10:06:04,VALID,917.69,VALID,0,VALID,66.2322,VALID,708.574,VALID,24.4978,VALID,105,VALID,3.00234,
2014-03-25, 10:07:04,VALID,917.688,VALID,0,VALID,66.3695,VALID,701.698,VALID,24.5954,VALID,173,VALID,2.19258,
2014-03-25, 10:08:04,VALID,917.693,VALID,0,VALID,65.1726,VALID,656.788,VALID,24.6149,VALID,163,VALID,1.27578,
2014-03-25, 10:09:04,VALID,917.658,VALID,0,VALID,65.8053,VALID,707.5,VALID,24.8102,VALID,144,VALID,2.02148,
2014-03-25, 10:10:04,VALID,917.66,VALID,0,VALID,65.7977,VALID,560.091,VALID,25.0445,VALID,41,VALID,3.05078,
2014-03-25, 10:11:04,VALID,917.629,VALID,0,VALID,62.329,VALID,642.176,VALID,25.0836,VALID,57,VALID,3.09258,
2014-03-25, 10:12:04,VALID,917.646,VALID,0,VALID,63.5259,VALID,653.242,VALID,24.9645,VALID,53,VALID,3.12969,
2014-03-25, 10:13:04,VALID,917.635,VALID,0,VALID,63.5488,VALID,723.509,VALID,24.984,VALID,151,VALID,2.96094,
2014-03-25, 10:14:04,VALID,917.687,VALID,0,VALID,63.4039,VALID,670.648,VALID,24.9078,VALID,138,VALID,2.73789,
2014-03-25, 10:15:04,VALID,917.656,VALID,0,VALID,64.4941,VALID,501.106,VALID,24.8688,VALID,119,VALID,1.53594,
2014-03-25, 10:16:04,VALID,917.632,VALID,0,VALID,63.3735,VALID,734.253,VALID,24.8492,VALID,156,VALID,3.66133,
2014-03-25, 10:17:04,VALID,917.598,VALID,0,VALID,63.9986,VALID,736.724,VALID,24.7302,VALID,152,VALID,3.30938,
2014-03-25, 10:18:04,VALID,917.66,VALID,0,VALID,65.0506,VALID,757.568,VALID,24.8297,VALID,130,VALID,2.1832,
2014-03-25, 10:19:04,VALID,917.617,VALID,0,VALID,61.7725,VALID,726.625,VALID,24.8083,VALID,129,VALID,2.74258,
2014-03-25, 10:20:04,VALID,917.622,VALID,0,VALID,64.2578,VALID,706.426,VALID,24.7711,VALID,77,VALID,3.01914,
2014-03-25, 10:21:04,VALID,917.624,VALID,0,VALID,64.8753,VALID,740.914,VALID,24.7711,VALID,128,VALID,2.86094,
2014-03-25, 10:22:04,VALID,917.629,VALID,0,VALID,65.1497,VALID,750.369,VALID,24.945,VALID,103,VALID,1.22266,
2014-03-25, 10:23:04,VALID,917.657,VALID,0,VALID,65.5233,VALID,724.691,VALID,25.2769,VALID,33,VALID,1.45977,
2014-03-25, 10:24:04,VALID,917.614,VALID,0,VALID,63.5564,VALID,744.137,VALID,25.4136,VALID,128,VALID,1.96719,
2014-03-25, 10:25:04,VALID,917.643,VALID,0,VALID,65.6529,VALID,765.518,VALID,25.5113,VALID,94,VALID,1.30313,
2014-03-25, 10:26:04,VALID,917.664,VALID,0,VALID,63.4726,VALID,762.08,VALID,25.7261,VALID,123,VALID,2.17305,
2014-03-25, 10:27:04,VALID,917.612,VALID,0,VALID,60.9645,VALID,753.485,VALID,25.5113,VALID,145,VALID,1.79492,
2014-03-25, 10:28:04,VALID,917.624,VALID,0,VALID,61.2465,VALID,747.146,VALID,25.5113,VALID,121,VALID,2.25508,
2014-03-25, 10:29:04,VALID,917.596,VALID,0,VALID,64.0214,VALID,742.311,VALID,25.396,VALID,90,VALID,4.07617,
2014-03-25, 10:30:04,VALID,917.585,VALID,0,VALID,63.2667,VALID,258.181,VALID,25.1988,VALID,97,VALID,2.31172,
2014-03-25, 10:31:04,VALID,917.535,VALID,0,VALID,62.9847,VALID,458.022,VALID,25.0621,VALID,70,VALID,1.27305,
2014-03-25, 10:32:04,VALID,917.521,VALID,0,VALID,64.8448,VALID,756.815,VALID,25.1402,VALID,43,VALID,2.2543,
2014-03-25, 10:33:04,VALID,917.545,VALID,0,VALID,62.4739,VALID,764.659,VALID,25.2007,VALID,132,VALID,1.70742,
2014-03-25, 10:34:04,VALID,917.545,VALID,0,VALID,64.578,VALID,766.378,VALID,25.1988,VALID,122,VALID,1.96484,
2014-03-25, 10:35:04,VALID,917.564,VALID,0,VALID,63.4878,VALID,760.039,VALID,25.1012,VALID,117,VALID,3.20234,
2014-03-25, 10:36:04,VALID,917.537,VALID,0,VALID,63.2057,VALID,768.741,VALID,25.0817,VALID,111,VALID,2.09492,
2014-03-25, 10:37:04,VALID,917.519,VALID,0,VALID,64.4179,VALID,772.18,VALID,25.0602,VALID,86,VALID,1.84883,
2014-03-25, 10:38:04,VALID,917.52,VALID,0,VALID,63.5412,VALID,778.626,VALID,25.1598,VALID,117,VALID,1.53516,
2014-03-25, 10:39:04,VALID,917.524,VALID,0,VALID,64.273,VALID,287.513,VALID,25.357,VALID,90,VALID,0.526563,
2014-03-25, 10:40:04,VALID,917.512,VALID,0,VALID,62.7483,VALID,770.031,VALID,25.5503,VALID,69,VALID,1.47891,
2014-03-25, 10:41:04,VALID,917.468,VALID,0,VALID,63.4268,VALID,751.873,VALID,25.7085,VALID,73,VALID,2.11641,
2014-03-25, 10:42:04,VALID,917.449,VALID,0,VALID,61.5896,VALID,772.502,VALID,25.7456,VALID,43,VALID,1.74102,
2014-03-25, 10:43:04,VALID,917.482,VALID,0,VALID,62.451,VALID,780.882,VALID,25.8433,VALID,70,VALID,2.25352,
2014-03-25, 10:44:04,VALID,917.434,VALID,0,VALID,61.8945,VALID,815.908,VALID,25.7456,VALID,70,VALID,2.54922,
2014-03-25, 10:45:04,VALID,917.432,VALID,0,VALID,63.5793,VALID,711.046,VALID,25.7066,VALID,96,VALID,1.88945,